EWG82N EDGG-EDDG

Flight info

Callsign EWG82N
Flight time N/A
Altitude 11000
Route OSNAD1W/25 OSNAD
Aircraft A320/M-SDE3FGHIRWY/LB1

Departure

Time N/A
Airport EDGG

Arrival

Time 2026-04-24 19:09
Airport Münster Osnabrück Airport (EDDG)
Time Latitude Longitude Altitude Speed Heading
2026-04-24 19:08 52.13029 7.67187 168 ft 8 kts 100°
2026-04-24 19:09 52.13035 7.67280 168 ft 8 kts 74°
2026-04-24 19:09 52.13052 7.67366 168 ft 8 kts 72°
2026-04-24 19:09 52.13071 7.67458 168 ft 8 kts 71°
2026-04-24 19:09 52.13089 7.67546 168 ft 8 kts 71°
2026-04-24 19:10 52.13109 7.67639 168 ft 9 kts 71°
2026-04-24 19:10 52.13131 7.67738 168 ft 9 kts 71°
2026-04-24 19:10 52.13153 7.67842 168 ft 10 kts 70°
2026-04-24 19:10 52.13178 7.67956 168 ft 11 kts 70°
2026-04-24 19:11 52.13205 7.68081 168 ft 13 kts 70°
2026-04-24 19:11 52.13230 7.68204 168 ft 9 kts 71°
2026-04-24 19:11 52.13243 7.68275 168 ft 6 kts 79°
2026-04-24 19:11 52.13258 7.68347 168 ft 7 kts 68°
2026-04-24 19:12 52.13278 7.68428 168 ft 8 kts 69°
2026-04-24 19:12 52.13297 7.68521 168 ft 9 kts 71°
2026-04-24 19:12 52.13318 7.68623 168 ft 10 kts 71°
2026-04-24 19:12 52.13340 7.68725 168 ft 8 kts 71°
2026-04-24 19:13 52.13349 7.68769 168 ft 0 kts 71°
2026-04-24 19:13 52.13350 7.68818 168 ft 6 kts 103°
2026-04-24 19:13 52.13318 7.68867 168 ft 7 kts 158°
2026-04-24 19:13 52.13263 7.68897 168 ft 10 kts 161°
2026-04-24 19:14 52.13199 7.68932 168 ft 9 kts 160°
2026-04-24 19:14 52.13161 7.69005 168 ft 8 kts 87°
2026-04-24 19:14 52.13178 7.69097 168 ft 9 kts 71°
2026-04-24 19:14 52.13201 7.69205 168 ft 11 kts 71°
2026-04-24 19:15 52.13225 7.69317 168 ft 10 kts 71°
2026-04-24 19:15 52.13248 7.69431 168 ft 10 kts 71°
2026-04-24 19:15 52.13270 7.69533 168 ft 7 kts 71°
2026-04-24 19:15 52.13251 7.69561 168 ft 4 kts 169°
2026-04-24 19:16 52.13202 7.69539 168 ft 3 kts 197°
2026-04-24 19:16 52.13198 7.69537 168 ft 0 kts 197°